Regional Weather Roundup
Issued by NWS

Home | Current Version | Previous Version | Text Only | Print | Product List | Glossary Off
Versions: 1 2 3 4 5 6 7 8 9 10 11 12 13 14 15 16 17 18 19 20 21 22 23 24 25 26 27

000
ASUS45 KTFX 250510
RWRMT
MONTANA REGIONAL WEATHER ROUNDUP
NATIONAL WEATHER SERVICE GREAT FALLS MT
1100 PM MDT FRI MAR 24 2017

NOTE: "FAIR" INDICATES FEW OR NO CLOUDS BELOW 12000 FEET WITH NO
SIGNIFICANT WEATHER AND/OR OBSTRUCTIONS TO VISIBILITY.

MTZ001>007-043-250600-
WEST OF THE DIVIDE

CITY           SKY/WX    TMP DP  RH WIND       PRES   REMARKS
KALISPELL      CLOUDY    38  35  89 SW3       29.87R
MISSOULA       CLOUDY    45  35  68 SE3       29.93R
BUTTE          LGT RAIN  42  33  70 W12       29.93R
MULLAN PASS    FLURRIES  28  28 100 W5        29.91R
ANACONDA         N/A     41  34  75 S7        29.90F
DEER LODGE       N/A     45  36  70 S7        29.91S
EUREKA           N/A     43  36  75 S8        29.85R
HAMILTON         N/A     43  39  87 CALM      29.94R
PLAINS           N/A     43  34  70 CALM      29.94R
$$

MTZ008-052>055-250600-
SOUTHWEST MONTANA

CITY           SKY/WX    TMP DP  RH WIND       PRES   REMARKS
BOZEMAN        CLOUDY    52  28  39 SW10      29.88R
DILLON         CLOUDY    47  28  47 SW9       29.91R
W YELLOWSTONE  LGT SNOW  36  32  87 SE8G18    30.04F WCI  29
ENNIS          CLOUDY    45  28  53 S26G36    29.98F
THREE FORKS      N/A     51  51 100 S26       29.88S
TWIN BRIDGES     N/A     49  27  42 S16       29.91S
$$

MTZ009-010-012-014-046-048-049-054-250600-
EAST SLOPES AND CENTRAL MONTANA

CITY           SKY/WX    TMP DP  RH WIND       PRES   REMARKS
CUT BANK       CLOUDY    42  30  62 W16G26    29.76R
GREAT FALLS    CLOUDY    49  31  49 SW21G33   29.80R
MALMSTROM AFB  CLOUDY    52  32  46 SW24      29.80R
HELENA         CLOUDY    48  36  63 W10       29.86R
AUGUSTA          N/A     40  28  60 S8        29.79S
BOWMANS CRNR     N/A     40  32  70 SW14      29.80S
CHOTEAU          N/A     46  30  53 SW16      29.79F
CONRAD           N/A     43  32  65 SW7       29.82R
FAIRFIELD      MOCLDY    46  30  55 SW18      29.78S
POWER          MOCLDY    47  30  50 SW21      29.78R
RAYNESFORD     MOCLDY    52  29  41 W21G26    29.81R
$$

MTZ011-013-016-021-045-047-050-051-250600-
NORTH CENTRAL MONTANA

CITY           SKY/WX    TMP DP  RH WIND       PRES   REMARKS
HAVRE          CLOUDY    52  29  41 NW18      29.70R
LEWISTOWN      CLOUDY    52  23  32 SW20      29.80R
N BAR RANCH      N/A     52  19  28 W12       29.82R
CHINOOK          N/A     61  25  25 SW10      29.67R
DENTON         MOCLDY    50  25  37 SW17      29.74R
FORT BENTON      N/A     55  30  38 N18       29.78R
GEYSER         CLOUDY    51  26  37 W16G25    29.79R
GRASS RANGE    MOCLDY    51  24  34 W12       29.76R
STANFORD       MOCLDY    48  24  38 W10       29.80R
WINIFRED       MOCLDY    53  24  32 SW12      29.76R
$$

MTZ017>020-022>027-061-062-250600-
NORTHEAST MONTANA

CITY           SKY/WX    TMP DP  RH WIND       PRES   REMARKS
GLASGOW        CLOUDY    52  30  43 SE17      29.77F
JORDAN           N/A     52  33  48 S13       29.77F
SIDNEY         CLOUDY    49  34  56 SE22G29   29.90F
WOLF POINT     CLOUDY    52  29  41 SE9G18    29.83F
MALTA          MOCLDY    55  34  44 S15       29.69F
PLENTYWOOD       N/A     41  36  81 SE17      29.90F
POPLAR           N/A     52  36  54 SE16      29.85F
SCOBEY           N/A     45  27  49 SE16      29.83
$$

MTZ028>42-056>058-250600-
SOUTHCENTRAL AND SOUTHEAST MONTANA

CITY           SKY/WX    TMP DP  RH WIND       PRES   REMARKS
BAKER          CLOUDY    44  33  65 SE20      29.93F
BILLINGS       CLOUDY    55  30  38 W13       29.81S
LIVINGSTON     CLOUDY    52  25  35 SW39G49   29.83R
MILES CITY     PTCLDY    51  30  44 SE18G24   29.82F
BIG TIMBER     CLEAR     52  23  32 SW5       29.87S
EKALAKA          N/A     47  30  51 SE17      29.89
FORSYTH          N/A     46  36  66 NE6       29.78F
HARLOWTON      CLOUDY    51  21  30 W5        29.82R
LAUREL           N/A     54  28  36 W10       29.83R
$$

REGIONAL REPORTS...DAKOTAS

CITY           SKY/WX    TMP DP  RH WIND       PRES   REMARKS
WILLISTON      CLOUDY    44  34  67 SE15G24   29.95F
MINOT          CLOUDY    31  29  92 SE14      30.09F WCI  21
DICKINSON      CLOUDY    37  30  75 SE18      29.99F WCI  27
BEACH            N/A    N/A N/A N/A MISG        N/A
TIOGA            N/A     36  36 100 SE17G24   30.00F WCI  25
WATFORD CITY     N/A     43  34  70 SE18      29.96F
BISMARCK       CLEAR     31  28  89 E10       30.14F WCI  22
GRAND FORKS    CLEAR     29  28  96 N6        30.22F WCI  23
FARGO          CLEAR     29  27  92 N5        30.21S
BUFFALO SD       N/A     43  34  70 SE20      29.91F
RAPID CITY     CLEAR     39  29  67 S10       30.07S
$$

REGIONAL REPORTS...WYOMING/IDAHO/WASHINGTON

CITY           SKY/WX    TMP DP  RH WIND       PRES   REMARKS
GILLETTE       CLOUDY    45  28  51 S18       29.93F
SHERIDAN       PTCLDY    42  33  70 E7        29.83F
BUFFALO WY     CLOUDY    51  26  37 S18       29.88F
CODY           CLOUDY    49  20  31 SW14      29.92S
YELLOWSTONE LA   N/A     31  26  82 VRB3      30.08R
IDAHO FALLS    CLOUDY    48  31  51 S14       30.05R
SALMON         CLOUDY    48  34  57 SW10      29.93R
BOISE          CLOUDY    45  42  89 CALM      30.06R
SPOKANE        PTCLDY    42  39  89 SW10      29.95R
$$

REGIONAL REPORTS...ALBERTA

CITY           SKY/WX    TMP DP  RH WIND       PRES   REMARKS
EDMONTON       CLEAR     30  28  93 NE7       29.65S WCI  23
CALGARY        CLOUDY    45  23  42 W15       29.60S
LETHBRIDGE     CLEAR     41  32  70 W13       29.69F
MEDICINE HAT   CLOUDY    52  32  46 S14       29.66F
WATERTON GATE    N/A     37  34  87 SW10        N/A  WCI  30
CARDSTON         N/A     43  30  61 SW7         N/A
MILK RIVER       N/A     43  32  65 SW8         N/A
ONEFOUR          N/A     50  30  46 NW10        N/A
$$

REGIONAL REPORTS...SASKATCHEWAN

CITY           SKY/WX    TMP DP  RH WIND       PRES   REMARKS
SWIFT CURRENT  CLOUDY    48  34  57 S10G17    29.68F
REGINA         CLOUDY    34  30  86 SE22G32   29.89F WCI  22
SASKATOON      CLOUDY    37  32  81 SE16G22   29.82F WCI  28
CYPRESS HILLS    N/A     46  21  36 W6          N/A
VAL MARIE        N/A     54  30  40 SE22G28     N/A
ROCKGLEN         N/A     43  32  65 SE17        N/A
ASSINIBOIA       N/A     36  32  87 E7          N/A  WCI  30
$$




USA.gov is the U.S. government's official web portal to all federal, state and local government web resources and services.